Terminal Aerodrome Forecast
Issued by NWS Raleigh/Durham, NC

Home | Current Version | Previous Version | Text Only | Print | Product List | Glossary On
Versions: 1 2 3 4 5 6 7 8 9 10 11 12 13 14 15 16 17 18 19 20 21 22 23 24 25 26 27 28 29 30 31 32 33 34 35 36 37 38 39 40 41 42 43 44
000
FTUS42 KRAH 251622 AAB
TAFRDU
TAF AMD
KRDU 251622Z 2516/2612 22006KT 5SM -RA OVC025
      TEMPO 2516/2519 3SM -RA BR BKN005
     FM251900 16005KT 4SM -RA BR OVC007
     FM260300 VRB03KT 2SM BR OVC005=

USA.gov is the U.S. government's official web portal to all federal, state and local government web resources and services.